EW3286 Weather Reports


Display with metric or nautical units.
time (UTC)temp
F
wind
direction
speed
MPH
gust
MPH
rain 1hr
in
rain 24hr
in
rain mn
in
humidity
%
barometer
mb
20260502210015 65 151 0.0 0.0 0.00 0.00 0.00 34 1014.7
20260502204509 64 159 0.0 0.0 0.00 0.00 0.00 36 1015.1
20260502203004 64 179 0.0 0.0 0.00 0.00 0.00 35 1015.5
20260502201501 64 177 0.0 0.0 0.00 0.00 0.00 33 1015.6
20260502200126 63 177 0.0 0.0 0.00 0.00 0.00 36 1016.0
20260502194605 63 169 0.0 0.0 0.00 0.00 0.00 37 1016.4
20260502193047 62 190 0.0 0.0 0.00 0.00 0.00 37 1016.7
20260502191548 62 144 0.0 0.0 0.00 0.00 0.00 36 1017.0
20260502190043 62 145 0.0 0.0 0.00 0.00 0.00 36 1017.2
20260502184538 61 141 0.0 0.0 0.00 0.00 0.00 39 1017.4
20260502183043 60 205 0.0 0.0 0.00 0.00 0.00 36 1017.7
20260502181531 60 169 0.0 0.0 0.00 0.00 0.00 37 1017.9
20260502163008 55 162 0.0 0.0 0.00 0.00 0.00 43 1019.6
20260502161503 55 160 0.0 0.0 0.00 0.00 0.00 43 1019.7
20260502160107 54 140 0.0 0.0 0.00 0.00 0.00 44 1020.0
20260502151552 52 150 0.0 0.0 0.00 0.00 0.00 47 1020.3
20260502150106 52 150 0.0 0.0 0.00 0.00 0.00 46 1020.3
20260502123057 35 165 0.0 0.0 0.00 0.00 0.00 83 1021.3
20260502121602 34 189 0.0 0.0 0.00 0.00 0.00 83 1021.4
20260502120111 33 196 0.0 0.0 0.00 0.00 0.00 82 1021.3
20260502114554 32 227 0.0 0.0 0.00 0.00 0.00 81 1021.3
20260502113108 32 247 0.0 0.0 0.00 0.00 0.00 81 1021.2
20260502111547 31 248 0.0 0.0 0.00 0.00 0.00 81 1021.2
20260502110047 32 248 0.0 0.0 0.00 0.00 0.00 81 1021.1
20260502104542 31 248 0.0 0.0 0.00 0.00 0.00 82 1021.3
20260502103104 31 249 0.0 0.0 0.00 0.00 0.00 81 1021.3
20260502101548 31 250 0.0 0.0 0.00 0.00 0.00 80 1021.3
20260502091533 33 268 0.0 0.0 0.00 0.00 0.00 79 1021.1
20260502071521 34 269 0.0 0.0 0.00 0.00 0.00 79 1021.1
20260502070018 34 269 0.0 0.0 0.00 0.00 0.00 79 1021.3
20260502064515 34 269 0.0 0.0 0.00 0.00 0.00 78 1021.3
20260502063016 34 269 0.0 0.0 0.00 0.00 0.00 78 1021.4
20260502061513 34 269 0.0 0.0 0.00 0.00 0.00 77 1021.4
20260502060011 35 269 0.0 0.0 0.00 0.00 0.00 76 1021.4
20260502054511 35 269 0.0 0.0 0.00 0.00 0.00 74 1021.3
20260502053007 35 269 0.0 0.0 0.00 0.00 0.00 74 1021.3
20260502051506 35 269 0.0 0.0 0.00 0.00 0.00 73 1021.3
20260502050003 36 269 0.0 0.0 0.00 0.00 0.00 73 1021.3
20260502044501 36 269 0.0 0.0 0.00 0.00 0.00 74 1021.3
20260502043109 36 269 0.0 0.0 0.00 0.00 0.00 72 1021.2
20260502041600 37 269 0.0 0.0 0.00 0.00 0.00 70 1021.2
20260502040101 38 269 0.0 0.0 0.00 0.00 0.00 69 1021.1
20260502034559 39 269 0.0 0.0 0.00 0.00 0.00 67 1021.0
20260502033057 40 269 0.0 0.0 0.00 0.00 0.00 66 1021.0
20260502031557 42 269 0.0 0.0 0.00 0.00 0.00 62 1021.0
20260502030106 43 269 0.0 0.0 0.00 0.00 0.00 58 1021.1
20260502024555 44 269 0.0 0.0 0.00 0.00 0.00 59 1020.9
20260502023059 44 269 0.0 0.0 0.00 0.00 0.00 55 1020.9
20260502021555 45 270 0.0 0.0 0.00 0.00 0.00 55 1020.6
20260502020050 45 270 0.0 0.0 0.00 0.00 0.00 52 1020.4
20260502014549 46 281 0.0 0.0 0.00 0.00 0.00 50 1020.2
20260502013055 47 244 0.0 0.0 0.00 0.00 0.00 48 1020.1
20260502011548 48 278 0.0 0.0 0.00 0.00 0.00 47 1020.0
20260502010053 49 265 0.0 0.0 0.00 0.00 0.00 45 1019.8
20260502004546 49 252 0.0 0.0 0.00 0.00 0.00 46 1019.8
20260502003045 49 271 0.0 0.0 0.00 0.00 0.00 43 1019.7
20260502001544 50 261 0.0 0.0 0.00 0.00 0.00 43 1019.6
20260502000044 50 259 0.0 0.0 0.00 0.00 0.00 43 1019.6
20260501234544 50 262 0.0 0.0 0.00 0.00 0.00 44 1019.5
20260501233052 51 270 0.0 0.0 0.00 0.00 0.00 44 1019.5
20260501231540 51 265 0.0 0.0 0.00 0.00 0.00 45 1019.5
20260501230039 51 226 0.0 0.0 0.00 0.00 0.00 41 1019.4
20260501224538 50 233 0.0 0.0 0.00 0.00 0.00 44 1019.4
20260501223041 50 265 0.0 0.0 0.00 0.00 0.00 44 1019.4
20260501221536 50 234 0.0 0.0 0.00 0.00 0.00 43 1019.4
20260501220035 49 290 0.0 0.0 0.00 0.00 0.00 45 1019.4
20260501214535 50 250 0.0 0.0 0.00 0.00 0.00 46 1019.4
20260501213033 51 261 0.0 0.0 0.00 0.00 0.00 45 1019.3
20260501211542 50 253 0.0 0.0 0.00 0.00 0.00 45 1019.4